GFSNGP_850_temp_078.txt.gz
Temp
15 15 16 15 16 18 18 16 16 16 15 17 17 17 18 22 20 21 22 21 21 20 19 20 20 19 19 17 17 17 16 15 15 14 15 13 13 14 12 10 10 9 8 8
12 14 15 14 16 18 17 16 16 17 16 18 20 19 20 20 21 21 21 20 21 21 20 18 19 20 19 18 17 16 16 15 15 15 14 12 10 10 10 9 8 8 8 7
10 13 14 11 13 17 17 17 16 15 16 18 18 17 18 21 20 21 22 21 21 21 21 19 19 19 18 18 16 15 14 13 12 11 10 10 10 9 8 8 8 7 7 6
8 11 10 12 15 18 17 17 17 18 18 16 18 21 21 22 23 21 22 21 20 21 20 19 18 17 16 15 14 13 12 11 10 10 10 9 9 8 8 7 7 6 5 4
9 10 12 13 16 17 17 16 17 18 18 19 20 19 18 21 22 22 21 20 20 19 19 18 16 15 14 13 11 10 10 9 9 9 9 9 8 8 7 6 5 4 4 3
7 10 9 13 15 16 17 13 17 17 17 18 17 13 14 20 21 20 20 20 19 18 17 16 15 13 12 11 11 10 9 8 8 8 8 7 7 7 6 5 4 3 2 1
6 8 8 12 14 18 15 12 16 19 18 18 15 15 21 19 19 20 20 19 17 16 15 14 13 12 11 10 9 7 7 7 7 6 6 6 5 5 4 4 3 2 1 1
7 7 9 12 14 15 14 17 17 18 19 19 20 20 20 19 19 18 18 16 15 14 13 12 11 10 9 7 7 6 5 5 5 4 4 4 4 3 2 2 1 1 0 -0
8 8 11 12 12 13 15 16 16 17 18 18 19 18 18 18 17 16 15 14 13 12 11 10 9 8 8 6 5 4 3 3 3 3 2 2 2 1 1 1 -0 -0 -1 -1
9 11 11 13 13 14 14 14 16 16 17 17 17 16 15 15 14 13 13 12 11 10 9 8 7 7 6 6 4 3 3 2 2 1 1 1 0 -0 -0 -1 -1 -1 -2 -2
8 10 11 13 14 14 15 15 15 16 16 17 17 16 15 14 13 12 11 10 10 9 7 6 5 5 4 4 3 3 2 1 0 0 -0 -0 -1 -1 -2 -2 -2 -3 -3 -3
8 11 12 13 15 16 14 14 14 16 15 15 16 16 15 13 11 10 10 8 8 7 6 5 4 4 2 2 2 2 1 0 -0 -1 -1 -2 -3 -3 -3 -3 -3 -3 -4 -5
11 15 13 14 13 13 14 14 14 14 15 15 15 15 12 10 9 9 8 7 6 5 4 3 2 2 1 1 1 0 0 -1 -2 -3 -4 -4 -4 -4 -5 -6 -6 -7 -6 -7
14 13 11 12 12 12 13 13 12 12 13 13 14 12 11 9 7 7 5 4 3 2 1 1 1 -0 -1 -2 -3 -3 -3 -4 -5 -6 -6 -6 -6 -6 -6 -7 -7 -8 -8 -9
13 13 14 12 10 10 10 10 11 11 9 9 7 8 8 6 4 2 0 -0 0 0 -1 -1 -2 -3 -4 -4 -4 -4 -5 -5 -6 -6 -6 -6 -7 -7 -8 -8 -9 -10 -10 -10
11 12 10 10 9 9 9 9 9 6 6 5 5 3 2 2 -0 -1 -2 -2 -0 -2 -3 -2 -3 -4 -5 -6 -6 -6 -6 -6 -6 -7 -7 -8 -8 -9 -10 -11 -11 -11 -11 -12
9 7 8 7 7 7 7 6 6 5 3 3 1 -0 -0 -1 -2 -2 -3 -3 -2 -3 -5 -5 -6 -6 -6 -6 -6 -7 -7 -7 -7 -8 -9 -10 -11 -11 -11 -12 -12 -13 -13 -14
9 10 8 8 7 6 4 4 4 2 1 -0 -1 -1 -1 -2 -3 -4 -4 -4 -4 -6 -6 -7 -7 -7 -7 -7 -7 -8 -9 -9 -10 -10 -11 -12 -12 -13 -13 -14 -14 -15 -15 -15
4 6 4 4 4 4 2 2 1 1 -1 -1 -2 -2 -3 -4 -4 -5 -6 -6 -6 -7 -8 -8 -8 -8 -8 -9 -9 -10 -10 -11 -11 -12 -13 -14 -14 -15 -15 -16 -16 -16 -16 -17
2 1 1 -0 -0 1 -1 -2 -2 -2 -3 -2 -3 -4 -5 -6 -7 -7 -7 -7 -8 -8 -9 -10 -10 -10 -10 -11 -11 -11 -12 -12 -13 -14 -15 -15 -16 -17 -17 -17 -18 -18 -18 -19
-2 -2 -3 -3 -4 -5 -4 -4 -4 -4 -5 -5 -5 -6 -7 -8 -7 -7 -7 -8 -12 -12 -11 -11 -11 -11 -12 -12 -12 -13 -14 -15 -15 -16 -17 -18 -18 -19 -19 -19 -20 -20 -20 -20
-5 -5 -6 -6 -6 -6 -5 -5 -5 -6 -6 -7 -7 -7 -7 -8 -9 -9 -10 -10 -13 -13 -12 -12 -12 -13 -14 -14 -15 -15 -16 -17 -17 -18 -18 -19 -20 -20 -21 -21 -21 -21 -22 -22
-7 -7 -7 -7 -7 -8 -7 -7 -7 -7 -7 -7 -8 -9 -9 -10 -10 -10 -12 -13 -13 -13 -13 -14 -14 -15 -15 -15 -16 -17 -17 -18 -19 -20 -21 -21 -21 -22 -22 -22 -22 -23 -23 -23
-8 -7 -8 -8 -7 -7 -8 -9 -8 -9 -9 -9 -10 -10 -10 -10 -12 -13 -13 -14 -14 -14 -14 -15 -15 -16 -16 -17 -18 -18 -19 -20 -21 -21 -22 -22 -22 -23 -23 -23 -24 -24 -24 -24
-8 -8 -8 -8 -8 -9 -9 -10 -9 -10 -10 -11 -11 -12 -12 -12 -11 -14 -14 -15 -15 -15 -15 -17 -18 -18 -18 -18 -19 -19 -20 -20 -21 -21 -22 -22 -23 -23 -23 -23 -24 -24 -24 -24
-8 -9 -9 -9 -10 -10 -10 -10 -10 -11 -11 -12 -13 -13 -13 -14 -14 -15 -15 -16 -17 -17 -18 -18 -18 -18 -19 -19 -19 -19 -20 -20 -21 -21 -22 -22 -22 -22 -23 -23 -23 -23 -23 -23
-9 -9 -10 -10 -10 -11 -11 -11 -11 -12 -12 -12 -13 -15 -15 -15 -16 -17 -17 -18 -18 -18 -18 -18 -19 -19 -19 -19 -20 -20 -21 -21 -21 -21 -21 -22 -22 -22 -22 -22 -23 -23 -23 -23

GFSNGP_850_temp_084.txt.gz
Temp
8 8 8 10 12 14 14 14 13 14 14 15 15 16 16 20 19 19 20 21 22 21 21 21 20 20 20 20 18 17 15 15 15 14 14 13 13 12 12 12 11 10 10 9
7 9 9 10 12 13 13 12 12 13 13 15 16 18 16 18 20 19 20 21 21 22 22 21 21 21 20 19 18 16 15 14 13 13 13 13 12 11 11 10 10 9 9 9
7 8 8 9 11 13 13 12 13 12 13 15 15 14 15 18 19 20 22 22 21 22 22 21 21 20 19 19 18 16 14 13 12 12 12 12 11 11 10 10 10 9 9 9
6 7 9 11 13 14 13 14 12 13 14 13 14 17 19 20 21 22 22 22 22 21 21 20 20 19 19 18 17 15 14 13 12 12 10 10 10 9 9 9 9 9 9 9
6 8 8 10 12 12 12 13 14 13 13 13 16 16 16 20 20 21 22 22 22 22 21 19 18 18 17 16 15 14 13 10 10 10 9 9 9 9 9 8 8 8 8 7
6 7 7 10 10 11 13 11 12 13 12 13 14 12 12 21 21 21 20 21 21 20 19 18 18 17 15 13 11 10 9 9 9 9 8 9 8 8 8 7 7 6 6 5
6 7 7 9 8 8 10 10 11 13 14 14 14 14 20 19 18 17 19 20 18 17 18 17 15 14 12 10 9 8 8 8 7 7 7 7 6 6 6 6 5 5 4 3
6 7 7 8 8 8 9 10 11 12 13 14 16 18 17 17 14 18 16 14 15 15 15 13 11 11 10 8 7 7 6 6 6 6 6 5 5 5 4 4 3 3 2 2
6 7 9 9 8 10 9 9 11 12 13 12 15 15 14 14 13 12 16 15 13 13 10 9 9 9 9 7 6 6 6 6 5 5 5 4 4 3 3 2 2 2 1 1
6 9 8 10 11 12 11 11 12 13 13 13 12 11 14 12 9 10 9 8 8 10 9 8 7 7 7 6 5 4 4 4 4 4 3 2 2 2 1 1 0 0 -1 -2
7 8 9 10 10 11 11 11 12 13 11 12 12 9 8 8 8 8 8 8 8 8 7 6 6 6 5 5 5 5 4 3 3 2 2 1 1 -0 -1 -2 -3 -4 -4 -4
7 10 8 9 10 10 11 11 12 11 10 11 12 10 9 7 8 8 8 7 8 7 6 4 5 4 4 3 3 3 3 1 1 -0 -1 -1 -2 -3 -4 -4 -4 -4 -5 -6
8 10 9 10 10 9 9 10 11 11 10 11 9 11 11 9 5 5 6 6 6 5 4 4 4 3 1 1 1 1 1 -2 -2 -3 -3 -4 -4 -4 -5 -6 -6 -7 -7 -7
9 9 8 11 9 9 9 9 10 12 12 11 7 8 9 8 4 5 2 4 4 3 1 1 1 -1 -2 -2 -1 -1 -2 -3 -3 -4 -5 -5 -6 -6 -7 -7 -8 -8 -9 -10
8 8 8 9 8 8 8 9 8 11 8 6 4 3 3 4 3 1 -2 -0 0 -0 -1 -2 -3 -4 -3 -3 -2 -3 -3 -4 -5 -5 -6 -6 -7 -7 -8 -8 -9 -10 -11 -11
8 7 8 7 7 6 6 6 8 6 5 4 0 -1 -1 -2 -3 -3 -3 -4 -2 -4 -4 -4 -4 -4 -4 -4 -4 -4 -5 -6 -6 -7 -7 -7 -8 -8 -9 -10 -11 -12 -13 -13
5 6 6 5 6 5 5 4 3 1 0 0 -2 -3 -3 -3 -4 -4 -5 -4 -4 -4 -5 -5 -6 -6 -6 -6 -6 -6 -7 -7 -7 -8 -8 -9 -10 -10 -11 -12 -13 -14 -15 -16
3 4 5 5 5 3 2 1 -0 -1 -2 -3 -3 -3 -4 -3 -5 -6 -6 -6 -6 -6 -7 -7 -7 -7 -7 -7 -7 -7 -8 -8 -9 -9 -11 -11 -12 -13 -14 -15 -15 -16 -17 -17
0 1 2 2 3 2 1 -2 -2 -3 -5 -4 -4 -4 -4 -5 -6 -6 -7 -7 -7 -8 -10 -9 -9 -9 -8 -9 -9 -9 -10 -10 -11 -12 -13 -14 -14 -15 -16 -16 -17 -18 -18 -19
-2 -2 -1 -2 -2 -1 -3 -5 -5 -6 -7 -6 -6 -6 -8 -9 -8 -8 -7 -8 -10 -11 -11 -11 -10 -9 -10 -10 -11 -11 -11 -12 -12 -13 -14 -15 -15 -16 -17 -18 -18 -19 -19 -19
-5 -5 -5 -5 -6 -7 -7 -7 -6 -7 -8 -6 -6 -8 -9 -9 -9 -9 -8 -9 -12 -12 -11 -11 -11 -11 -11 -12 -12 -12 -13 -13 -14 -15 -15 -16 -17 -18 -18 -19 -19 -19 -20 -20
-7 -7 -8 -8 -9 -9 -9 -8 -7 -7 -7 -7 -7 -8 -9 -9 -9 -9 -10 -11 -13 -12 -11 -11 -12 -12 -13 -13 -13 -13 -14 -15 -15 -16 -17 -18 -18 -18 -18 -19 -19 -20 -20 -20
-9 -9 -9 -9 -9 -10 -10 -9 -7 -7 -8 -9 -9 -9 -9 -10 -10 -9 -11 -13 -13 -13 -12 -13 -14 -14 -14 -14 -14 -15 -16 -16 -17 -17 -18 -18 -18 -19 -19 -20 -20 -20 -20 -20
-9 -9 -10 -10 -10 -10 -11 -10 -9 -9 -9 -9 -9 -9 -9 -9 -11 -12 -13 -14 -14 -13 -13 -14 -15 -15 -15 -15 -16 -17 -17 -17 -18 -18 -18 -19 -19 -19 -20 -20 -20 -20 -20 -20
-10 -10 -10 -10 -10 -11 -10 -10 -10 -10 -10 -11 -11 -11 -11 -12 -10 -14 -14 -14 -15 -14 -14 -15 -15 -16 -17 -17 -17 -18 -18 -17 -18 -18 -19 -19 -19 -20 -20 -20 -20 -20 -20 -20
-10 -10 -10 -10 -10 -10 -10 -10 -10 -11 -10 -11 -12 -13 -13 -13 -14 -14 -15 -15 -15 -15 -16 -16 -17 -17 -18 -18 -18 -18 -18 -18 -19 -19 -19 -19 -19 -19 -20 -20 -20 -20 -20 -20
-10 -9 -9 -10 -10 -10 -10 -10 -10 -12 -12 -12 -13 -14 -14 -15 -15 -15 -15 -15 -16 -16 -17 -17 -18 -18 -18 -18 -18 -18 -18 -19 -19 -19 -19 -19 -20 -20 -20 -20 -20 -20 -21 -21

GFSNGP_850_temp_087.txt.gz
Temp
9 9 9 9 10 10 10 11 13 15 16 17 19 18 19 20 20 20 21 21 20 21 21 21 20 20 19 17 16 15 14 14 14 13 13 13 12 12 12 11 11 10 10 10
6 7 9 10 11 11 11 12 12 14 15 16 18 17 16 17 18 18 21 22 22 22 22 22 22 21 20 20 18 16 15 15 14 13 12 12 12 11 11 11 10 9 10 9
7 8 9 9 11 11 12 14 14 14 15 16 16 16 16 17 18 18 19 21 22 22 22 22 22 21 20 19 17 15 14 13 12 12 12 11 10 10 9 9 10 10 9 9
6 6 7 12 12 12 11 13 15 15 15 16 16 17 18 18 18 18 19 20 21 22 22 21 21 20 18 17 16 15 14 13 12 11 11 10 9 9 9 9 9 9 9 9
5 7 10 11 12 11 9 10 12 14 15 15 16 16 16 18 18 19 19 21 21 20 20 20 19 19 17 16 14 13 12 12 10 9 9 9 9 9 9 8 8 8 8 7
5 6 8 10 9 8 11 10 10 11 13 13 14 13 17 18 18 19 19 18 19 19 19 17 16 16 15 14 13 10 9 9 9 8 8 9 8 8 8 8 7 7 6 5
5 5 8 9 9 9 10 10 7 8 10 11 13 14 15 15 16 15 16 15 15 15 15 14 14 13 13 10 9 9 9 9 8 8 8 7 7 7 7 6 5 5 4 3
5 5 6 9 9 9 8 7 8 8 9 10 10 12 12 11 11 13 12 10 10 11 11 7 8 9 8 9 8 8 8 7 7 6 6 6 6 5 5 4 4 3 2 2
8 8 8 9 9 9 10 10 8 8 8 11 9 8 9 8 10 11 9 6 7 7 7 8 8 8 8 7 6 6 6 5 5 5 4 4 4 3 3 2 2 2 1 1
7 9 9 9 9 10 10 9 10 9 9 10 10 8 7 7 6 6 8 7 6 6 7 6 7 6 6 5 5 6 5 4 4 3 3 2 2 1 1 1 0 -1 -2 -3
8 9 9 10 10 10 10 10 10 10 10 11 10 8 6 6 6 6 5 5 6 7 6 5 5 5 4 5 5 5 4 3 2 2 1 1 -0 -1 -1 -2 -3 -3 -4 -4
8 9 9 9 10 10 10 9 9 9 10 9 9 8 7 7 7 6 5 5 6 5 5 5 5 4 3 4 4 4 3 1 0 -1 -1 -2 -2 -3 -4 -4 -4 -4 -5 -6
8 9 9 9 9 9 9 8 8 8 9 10 8 8 6 7 5 4 4 5 4 3 4 4 3 3 2 2 2 2 1 -1 -2 -2 -3 -3 -4 -4 -4 -6 -6 -6 -6 -8
8 8 7 9 8 8 7 7 7 6 5 6 7 6 6 2 1 4 3 1 1 1 0 0 1 0 -1 -0 -0 -1 -2 -3 -3 -4 -4 -4 -5 -5 -6 -7 -8 -8 -10 -10
7 6 8 8 8 7 6 6 5 5 2 0 2 2 1 0 -1 -2 -2 -0 0 -0 -2 -1 -1 -3 -3 -3 -2 -3 -4 -4 -4 -5 -5 -6 -7 -7 -8 -9 -10 -11 -12 -12
6 6 7 6 7 6 4 4 3 2 -1 -3 -2 0 -1 -1 -3 -4 -4 -3 -2 -4 -4 -4 -4 -5 -4 -4 -4 -4 -5 -6 -6 -6 -7 -8 -8 -9 -10 -10 -11 -12 -12 -13
3 4 5 5 5 5 3 2 1 1 -1 -2 -3 -4 -3 -3 -4 -5 -5 -4 -5 -5 -5 -5 -5 -5 -5 -5 -5 -6 -6 -6 -7 -7 -8 -9 -9 -10 -11 -12 -13 -14 -14 -15
0 0 2 3 2 2 2 -0 -1 -3 -3 -4 -4 -4 -4 -4 -6 -6 -6 -6 -5 -6 -6 -7 -7 -6 -7 -7 -6 -6 -7 -8 -8 -9 -10 -10 -11 -12 -13 -14 -15 -16 -16 -17
-1 -0 0 0 0 0 -0 -2 -3 -5 -4 -5 -5 -5 -5 -6 -7 -7 -7 -7 -7 -7 -9 -8 -8 -7 -7 -8 -7 -8 -8 -9 -10 -11 -12 -13 -13 -14 -15 -15 -16 -17 -17 -18
-3 -3 -2 -2 -3 -3 -4 -4 -5 -7 -7 -6 -6 -7 -7 -8 -8 -8 -8 -8 -9 -10 -10 -9 -9 -8 -8 -9 -9 -9 -10 -11 -11 -12 -13 -14 -15 -15 -16 -17 -17 -18 -18 -18
-6 -6 -6 -6 -6 -7 -7 -8 -8 -9 -8 -7 -6 -7 -9 -9 -9 -9 -8 -9 -11 -10 -10 -10 -10 -10 -10 -11 -11 -11 -12 -12 -13 -14 -15 -16 -16 -17 -17 -18 -18 -18 -18 -18
-7 -8 -8 -8 -9 -10 -10 -10 -10 -10 -10 -9 -8 -8 -9 -9 -9 -9 -10 -10 -12 -12 -11 -11 -11 -12 -12 -12 -12 -13 -13 -14 -15 -16 -16 -17 -17 -17 -18 -18 -18 -18 -18 -19
-9 -9 -10 -10 -10 -11 -11 -10 -11 -10 -9 -10 -10 -9 -9 -10 -10 -10 -11 -13 -12 -12 -12 -12 -13 -13 -14 -13 -14 -14 -15 -16 -16 -16 -17 -17 -18 -18 -18 -18 -18 -18 -19 -19
-10 -10 -11 -11 -11 -11 -12 -12 -11 -11 -10 -10 -10 -10 -10 -10 -11 -11 -12 -13 -13 -13 -13 -14 -14 -14 -14 -15 -15 -16 -16 -16 -17 -17 -17 -18 -18 -18 -18 -18 -19 -19 -20 -20
-11 -12 -12 -11 -11 -11 -11 -11 -10 -11 -10 -11 -11 -11 -11 -11 -9 -13 -13 -14 -14 -14 -14 -15 -15 -16 -16 -16 -16 -16 -17 -17 -18 -18 -18 -18 -18 -18 -19 -19 -19 -20 -20 -20
-12 -12 -12 -12 -12 -11 -11 -10 -10 -11 -11 -11 -12 -12 -12 -13 -13 -14 -14 -15 -15 -15 -15 -16 -16 -16 -16 -17 -17 -17 -18 -18 -18 -18 -18 -18 -19 -19 -19 -20 -20 -20 -20 -20
-12 -11 -11 -11 -11 -11 -10 -10 -11 -12 -12 -12 -13 -14 -14 -15 -15 -15 -15 -16 -16 -16 -16 -16 -17 -17 -17 -17 -18 -18 -18 -18 -18 -18 -19 -19 -19 -20 -20 -20 -20 -20 -20 -20

GFSNGP_850_temp_093.txt.gz
Temp
13 14 14 14 15 15 15 16 15 17 18 20 21 21 22 21 21 22 23 23 23 22 21 20 19 18 17 15 13 13 13 12 12 11 11 11 10 10 10 10 10 10 10 10
12 13 13 13 15 16 16 17 17 17 17 20 21 20 20 20 21 21 22 23 22 22 21 20 19 18 17 16 15 14 13 13 12 12 11 11 10 10 10 10 9 9 9 9
10 13 13 12 14 15 16 17 17 16 18 20 19 20 21 21 21 21 22 22 22 22 22 21 20 19 18 17 16 14 13 13 12 12 11 11 10 10 10 10 9 9 9 9
9 10 9 14 17 16 15 16 17 18 19 18 18 19 19 20 21 21 21 21 21 21 21 21 20 20 18 17 16 14 13 13 13 12 12 11 11 10 10 10 9 9 9 9
8 10 12 13 15 14 15 15 15 16 16 16 16 16 17 19 20 20 19 19 19 20 20 20 20 19 18 17 16 14 13 13 12 11 11 11 10 9 9 9 9 8 8 8
8 8 9 15 15 15 14 13 14 14 14 13 13 14 16 14 14 15 15 14 16 17 18 17 17 17 16 16 15 13 13 12 11 10 10 9 9 8 8 8 8 8 7 6
8 8 10 14 14 13 11 11 13 13 13 13 13 11 11 11 11 12 10 11 12 14 15 15 15 14 14 13 13 11 11 10 9 8 8 8 8 8 8 7 6 5 5 3
7 7 7 13 13 12 12 12 13 12 12 12 12 11 9 10 10 8 7 7 10 11 11 11 11 11 10 9 8 8 8 8 8 8 8 7 7 6 6 5 5 3 2 1
10 10 13 13 12 12 12 12 12 11 11 11 11 10 9 9 9 7 6 5 6 7 7 7 7 8 7 6 7 7 8 7 6 6 6 5 5 4 4 3 2 1 0 -1
12 13 14 14 13 13 13 12 12 11 10 10 10 11 8 7 6 5 5 4 4 5 5 5 5 5 7 6 6 7 7 6 5 5 4 3 2 1 1 0 -0 -2 -2 -3
12 13 13 13 13 13 12 11 11 9 9 9 10 9 7 5 4 4 3 3 2 3 3 3 3 4 5 4 5 5 4 4 3 3 3 2 1 -0 -2 -3 -3 -2 -3 -4
11 13 12 13 12 12 11 11 10 7 7 8 8 5 4 4 3 3 3 0 -0 0 1 1 2 2 3 3 4 4 3 2 1 2 1 -1 -1 -3 -4 -4 -3 -4 -5 -5
12 12 12 11 11 11 11 9 7 5 5 5 4 6 3 3 2 0 0 -0 -2 -1 -1 -1 -1 -1 -2 -1 2 2 2 0 -1 -0 -2 -2 -2 -3 -4 -6 -6 -6 -6 -6
11 11 11 11 11 10 10 8 5 3 3 3 2 3 1 1 0 -1 -1 -1 -2 -4 -4 -3 -3 -2 -3 -1 1 0 -0 -2 -2 -3 -3 -4 -5 -6 -6 -6 -7 -8 -9 -8
10 8 8 8 9 9 8 6 5 4 1 1 1 1 0 -0 -1 -2 -2 -2 -1 -1 -2 -1 -3 -2 -3 -2 -2 -3 -3 -4 -5 -5 -6 -6 -7 -9 -9 -10 -11 -12 -13 -13
6 6 6 8 7 7 7 6 5 4 1 -1 -0 -1 -2 -1 -2 -3 -4 -4 -2 -3 -3 -2 -3 -4 -3 -3 -3 -4 -4 -4 -4 -5 -7 -7 -8 -9 -11 -12 -12 -12 -12 -13
4 5 4 4 3 3 3 4 3 3 0 -3 -3 -3 -4 -4 -4 -4 -4 -4 -4 -5 -4 -4 -5 -5 -4 -3 -3 -4 -5 -6 -6 -6 -6 -8 -9 -10 -11 -13 -14 -14 -12 -13
1 1 1 1 0 -0 0 2 0 -1 -2 -5 -5 -5 -5 -5 -5 -5 -6 -5 -4 -4 -5 -6 -5 -5 -5 -5 -5 -5 -6 -7 -7 -8 -9 -11 -13 -13 -14 -15 -15 -16 -16 -15
-2 -3 -3 -3 -4 -3 -2 -1 -1 -3 -4 -5 -6 -7 -7 -7 -8 -8 -7 -6 -7 -7 -8 -7 -6 -6 -6 -6 -6 -6 -6 -7 -8 -9 -10 -12 -13 -14 -15 -16 -16 -17 -17 -18
-5 -5 -6 -5 -4 -5 -4 -4 -5 -6 -7 -7 -8 -9 -9 -10 -10 -10 -9 -8 -9 -10 -11 -10 -9 -8 -8 -8 -7 -7 -8 -9 -10 -11 -12 -12 -12 -13 -13 -15 -17 -18 -18 -19
-7 -8 -8 -8 -7 -7 -7 -8 -8 -9 -10 -10 -9 -10 -10 -11 -10 -11 -11 -11 -14 -13 -12 -11 -10 -9 -9 -9 -8 -9 -10 -10 -11 -12 -13 -15 -16 -17 -17 -18 -19 -19 -19 -19
-9 -9 -10 -10 -9 -10 -10 -10 -10 -10 -10 -11 -11 -11 -11 -12 -11 -11 -12 -14 -16 -14 -11 -9 -9 -9 -9 -9 -10 -10 -11 -12 -14 -15 -16 -17 -17 -18 -18 -18 -17 -17 -18 -17
-9 -10 -11 -11 -12 -12 -12 -12 -12 -11 -11 -12 -11 -11 -11 -12 -11 -11 -11 -12 -12 -12 -11 -11 -11 -11 -11 -11 -11 -12 -13 -14 -14 -14 -16 -17 -17 -17 -16 -16 -16 -17 -17 -17
-11 -12 -12 -12 -13 -13 -14 -14 -13 -13 -13 -13 -12 -12 -11 -11 -12 -12 -13 -12 -11 -11 -10 -11 -12 -12 -12 -12 -13 -13 -15 -15 -15 -15 -15 -15 -16 -16 -16 -16 -17 -17 -17 -18
-12 -12 -12 -13 -13 -14 -14 -14 -14 -14 -13 -13 -13 -12 -12 -12 -11 -13 -12 -13 -13 -12 -13 -13 -13 -14 -14 -14 -15 -15 -15 -15 -15 -16 -16 -16 -16 -16 -16 -17 -17 -18 -18 -18
-12 -12 -13 -13 -14 -14 -14 -15 -15 -14 -14 -13 -13 -13 -13 -13 -13 -13 -13 -14 -14 -14 -14 -15 -15 -15 -14 -14 -14 -15 -15 -16 -16 -16 -16 -16 -17 -17 -17 -18 -18 -18 -18 -19
-13 -13 -14 -14 -14 -14 -14 -14 -13 -14 -13 -13 -13 -15 -14 -13 -13 -13 -14 -14 -14 -15 -15 -15 -15 -15 -15 -15 -15 -16 -16 -16 -16 -16 -17 -17 -17 -17 -18 -18 -18 -19 -19 -19